sat.trackr.live / text

‹ back to catalog

RAWHIDE-1

NORAD 68629 · 2026-074C

PAYLOAD ACTIVE UNKNOWN

§ Identity

Operator
Country
US
Launch date
2026-04-07
Launch site
AFWTR
Launch vehicle
Mass (kg)
RCS (m²)

External: N2YO · Heavens-Above · Gunter

§ Orbital elements

Epoch: 2026-09-19T11:03:31.270176Z

Period
94.43 min
Inclination
60.0201°
Eccentricity
0.0038357
Mean motion
15.24992177 rev/d
Perigee alt
464.5 km
Apogee alt
517.2 km
Semi-major
6,868.9 km
B*
8.6527e-5
RAAN
176.2431°
Arg perigee
89.2370°
Mean anomaly
271.3106°
Rev number
2,516

§ Raw data

RAWHIDE-11 68629U 26074C   26262.46077859  .00001919  00000+0  86527-4 0  99952 68629  60.0201 176.2431 0038357  89.2370 271.3106 15.24992177 25162

JSON: /api/v1/satellites/68629 · /tle

For live sub-satellite position, see the globe view (requires WebGL).

§ Visibility from observer

Set your observer location to see the next 7 days of passes ≥ 10°. The values pass through the URL so the page stays shareable.

No JS? Fill the form by hand. The geolocation button needs JavaScript.